User: anonymous   Login
Location: Caltech
(34.1382°N, 118.1253°W)
Time: 16:18:44
(UTC-08:00)
Language:

Oscar 19 - Orbit

View from above orbital plane
View from above orbital plane
View from above satellite
View from above satellite

Ground track
Ground track

The orbit data is extracted from the following two-line orbital elements,

1 20442U 90005G   16041.41085063  .00000086  00000-0  47370-4 0  9994
2 20442  98.5343 338.1994 0012088 158.7793 201.3894 14.32796267361051
Epoch (UTC): 10 February 2016 09:51:37
Eccentricity: 0.0012088
inclination: 98.5343°
perigee height: 774 km
apogee height: 791 km
right ascension of ascending node: 338.1994°
argument of perigee: 158.7793°
revolutions per day: 14.32796267
mean anomaly at epoch: 201.3894°
orbit number at epoch: 36105

The dashed part of the orbit path shows where the satellite is in the earth's shadow,  

DLR